Wind_Speed
18 19 19 19 19 19 18 18 17 17 16 15 15 14 13 12 11 11 10 9 8 7 7 7 7 7 7 6 6 5 4 4 4 4 3 3 3 2 2 3 3 4 5
21 20 20 21 20 20 20 20 19 19 18 17 17 16 16 15 14 13 12 11 10 9 9 9 9 9 8 8 7 7 6 6 5 5 5 4 4 4 3 4 4 4 5
23 23 22 23 23 23 23 22 22 21 20 19 19 18 17 17 16 16 15 13 12 12 11 10 10 10 10 9 9 9 9 8 7 6 6 6 5 5 5 5 5 5 6
26 26 25 25 25 25 25 25 24 24 23 22 21 20 19 18 18 17 17 16 15 14 13 12 12 12 11 11 11 11 10 10 9 8 8 7 7 7 6 6 6 6 6
30 29 29 28 27 27 27 27 27 26 26 25 24 22 22 21 19 19 19 18 17 16 16 15 14 13 13 13 12 12 12 12 11 10 10 9 9 8 8 8 8 8 8
33 32 32 31 30 30 30 29 29 29 28 27 26 25 24 23 22 21 20 20 19 18 18 17 16 15 15 15 14 14 14 14 13 12 12 11 11 10 10 10 9 9 9
35 34 34 34 34 33 32 31 31 31 30 29 28 27 26 26 25 23 22 22 21 20 19 19 18 17 17 16 16 16 16 15 15 14 13 13 13 12 11 11 11 11 10
37 36 36 36 35 35 35 34 33 33 32 31 31 30 28 27 27 25 24 23 23 22 22 20 20 19 18 18 17 17 17 17 16 16 15 15 15 14 13 13 12 12 12
39 38 38 38 38 37 37 36 35 35 34 33 32 31 30 29 28 27 26 25 24 24 23 22 21 21 20 20 19 19 18 18 18 18 17 17 17 16 15 14 14 14 14
40 40 40 39 39 39 39 38 38 37 36 35 34 34 32 31 30 29 28 28 27 26 25 24 23 23 22 21 21 21 20 20 19 19 19 19 18 18 17 16 16 15 15
40 40 40 40 40 40 40 40 39 39 38 37 36 36 35 34 32 31 31 30 29 28 27 26 25 25 24 23 23 22 22 21 20 20 20 20 20 19 19 18 18 17 17
39 40 40 41 41 41 41 41 41 41 40 39 39 38 38 36 35 34 33 32 31 30 29 28 27 27 26 25 25 24 24 23 22 22 22 22 21 21 20 20 19 19 19
40 41 42 41 42 42 42 42 42 42 42 41 40 40 40 39 37 36 35 34 33 32 31 30 29 28 28 27 27 26 25 25 25 24 23 23 23 22 22 22 21 21 21
40 41 42 43 43 43 43 43 43 43 43 42 41 40 40 40 39 38 37 36 35 35 34 33 31 30 30 29 29 28 27 27 27 26 25 25 24 24 24 24 24 23 23
40 41 43 44 44 44 45 45 44 44 44 43 43 42 41 40 39 39 38 38 37 36 35 35 34 33 32 31 31 30 30 29 29 28 27 27 26 26 26 26 26 25 25
40 42 43 45 45 46 45 45 45 45 45 45 44 44 43 42 41 40 39 39 38 37 37 37 36 35 34 33 32 32 32 31 31 31 30 29 28 28 28 28 27 27 27
38 40 42 44 46 47 47 46 46 45 46 46 46 45 45 44 42 42 42 41 39 39 38 38 39 38 36 35 34 33 33 32 32 32 32 32 31 31 30 30 30 29 29
37 38 41 43 45 47 48 47 47 47 47 48 47 46 46 45 44 44 43 42 41 41 41 41 40 40 39 37 36 36 35 35 35 34 34 34 33 33 32 32 32 32 32
36 37 38 41 43 45 47 48 48 48 49 49 49 48 47 46 46 46 44 44 43 42 43 42 42 42 40 39 38 37 37 36 36 36 35 35 35 35 34 34 34 34 34
35 36 37 38 40 43 45 47 47 48 49 50 50 49 49 47 46 47 46 44 44 44 44 44 43 42 41 40 40 40 39 38 37 36 36 36 36 36 36 35 35 36 36
33 34 34 36 38 41 44 46 46 47 48 49 50 51 50 49 48 48 47 46 46 46 46 45 44 43 42 42 42 42 41 40 39 38 37 38 38 38 38 38 38 38 37
30 30 31 32 35 37 39 41 43 46 47 49 51 51 51 50 50 49 49 49 48 48 48 46 45 45 44 44 44 44 43 43 41 40 40 40 40 40 41 41 41 40 40
26 27 29 31 33 35 37 40 41 44 46 48 49 50 50 50 50 50 50 51 50 50 50 49 48 47 46 46 46 46 46 44 44 43 43 43 42 42 42 43 43 43 43
25 26 26 27 30 33 36 38 40 43 44 45 46 47 48 49 49 50 51 51 51 51 50 51 50 49 48 48 47 47 47 46 46 45 44 44 44 44 44 45 46 46 46
23 24 25 26 28 30 32 35 37 38 39 41 43 43 45 47 49 48 49 50 51 51 50 51 51 50 49 48 48 47 47 47 47 45 45 44 45 45 45 45 47 48 48
22 23 24 25 26 27 28 30 32 34 36 38 39 40 42 44 46 46 46 48 49 49 49 49 49 48 48 48 48 49 49 49 47 46 46 45 46 46 46 46 47 48 49
Wind_Direction
248 247 246 246 246 246 246 248 250 251 253 255 256 257 258 258 259 260 261 262 265 269 268 261 253 251 250 250 250 250 252 251 249 250 251 261 275 296 321 336 343 345 350
249 249 249 249 249 249 248 247 249 251 253 254 254 255 256 257 257 257 258 259 261 264 267 265 260 257 254 253 253 253 254 254 255 254 254 260 269 282 297 311 319 327 336
251 251 251 251 251 251 250 249 249 250 252 253 254 254 255 256 256 256 256 257 259 261 264 265 263 260 257 255 255 255 255 256 259 259 258 260 265 275 286 295 304 313 322
252 252 251 251 251 252 252 251 250 250 251 252 253 253 253 255 255 255 255 255 256 259 261 263 262 260 258 257 256 256 256 256 259 261 263 264 267 272 278 285 294 303 309
252 252 252 251 251 251 252 252 251 251 251 251 251 252 252 253 254 255 254 255 255 256 257 259 261 261 260 258 258 258 257 256 258 260 264 267 270 272 275 279 286 294 300
252 252 252 251 251 251 251 251 251 251 251 250 250 251 252 252 253 254 254 254 255 255 256 258 258 259 260 259 259 259 258 256 257 260 263 267 270 272 274 277 282 288 293
251 251 252 251 250 250 250 251 251 251 250 250 250 250 251 251 252 252 252 253 254 255 256 257 257 258 258 259 259 258 258 258 258 260 263 266 270 273 275 275 278 283 287
252 251 251 252 251 250 250 249 250 250 250 250 249 250 249 250 251 251 252 251 252 254 255 256 258 257 258 258 259 259 258 259 259 260 262 266 269 272 274 273 275 278 283
251 251 250 251 250 250 250 249 249 249 249 250 249 249 249 249 250 251 251 251 252 252 254 255 256 257 258 257 257 259 260 259 260 261 262 265 267 270 272 273 274 277 279
251 250 250 250 250 250 250 249 249 249 249 250 249 248 248 248 249 250 250 251 252 253 254 254 254 256 258 257 257 258 259 260 260 261 263 265 267 269 271 273 274 276 278
250 250 250 249 249 249 250 249 249 249 248 248 249 248 248 247 248 249 250 251 252 253 254 254 253 255 257 258 258 258 258 259 260 260 262 264 266 269 271 272 274 275 277
249 249 249 250 250 249 249 249 249 248 247 247 248 248 248 247 248 248 250 250 251 252 253 254 254 255 257 258 258 258 258 257 258 259 261 263 265 267 270 272 273 275 277
250 249 249 250 250 250 250 249 248 247 246 246 247 247 247 247 247 247 249 250 250 251 252 254 255 255 256 257 258 258 258 258 257 258 260 262 264 266 268 270 272 274 277
251 250 249 249 249 250 249 249 248 247 245 245 246 247 246 246 246 247 248 249 250 250 251 254 255 254 256 257 257 257 257 258 258 258 260 262 264 265 267 268 271 273 275
252 251 249 249 249 249 248 247 247 247 245 243 244 245 246 246 246 247 248 249 250 250 251 252 253 253 255 257 257 257 256 257 257 258 260 262 263 264 266 268 269 271 273
254 252 250 249 248 247 247 246 246 247 245 243 244 245 245 245 246 248 248 250 250 250 250 251 252 253 254 256 257 258 257 257 258 258 259 262 263 264 266 267 269 270 272
256 255 253 251 249 248 247 246 246 246 245 244 244 243 244 245 247 249 249 250 251 251 250 250 251 252 253 255 256 257 257 257 258 258 259 261 263 265 266 267 268 269 271
258 258 257 254 252 249 247 246 245 246 245 243 243 243 243 245 246 248 249 250 251 251 251 251 251 251 252 254 255 256 257 257 258 258 259 260 261 264 265 266 268 269 271
259 259 257 255 253 250 248 247 245 245 243 242 243 242 241 242 245 246 248 249 250 252 252 251 251 251 252 253 254 255 256 257 258 259 259 260 261 262 264 266 268 269 270
263 261 260 257 254 251 248 246 246 245 243 242 242 241 240 242 245 246 248 248 249 250 251 251 250 250 251 251 252 253 254 256 258 259 259 260 261 262 263 266 268 269 269
264 263 261 259 257 252 249 247 246 245 243 243 242 241 241 243 244 246 246 247 249 250 250 249 249 249 250 250 251 252 254 256 258 259 260 261 262 262 263 266 267 269 270
266 264 262 260 259 256 252 249 247 245 244 242 241 241 241 242 245 245 245 247 249 249 248 248 248 249 250 252 252 252 253 255 257 259 261 263 264 264 265 265 266 267 270
268 267 265 263 260 258 255 251 247 246 245 243 241 240 241 243 245 245 246 246 246 246 247 248 247 248 250 251 252 252 253 255 257 259 261 264 264 265 265 265 265 267 269
270 270 270 267 262 259 256 251 250 247 245 242 239 240 242 242 244 244 245 245 244 245 246 246 247 248 250 251 252 253 255 257 258 259 260 263 264 264 266 266 266 267 269
274 272 271 270 266 262 258 254 250 248 245 240 240 242 243 243 244 245 246 244 244 245 245 245 246 249 250 251 252 254 256 257 257 259 261 263 263 264 266 267 267 268 269
280 277 274 272 269 263 260 255 252 248 244 242 242 242 243 242 243 244 245 244 243 244 244 244 245 247 248 250 252 254 256 256 257 259 261 263 263 264 265 267 268 269 270
Height
5860 5862 5863 5864 5865 5866 5868 5869 5870 5871 5872 5873 5874 5875 5876 5877 5878 5878 5879 5879 5879 5880 5880 5880 5880 5880 5880 5880 5880 5880 5880 5879 5879 5878 5878 5878 5877 5877 5876 5875 5875 5874 5873
5857 5858 5860 5861 5862 5863 5864 5866 5867 5868 5869 5870 5871 5873 5874 5875 5875 5876 5877 5877 5878 5878 5878 5879 5879 5879 5879 5879 5879 5879 5879 5879 5878 5878 5877 5877 5877 5876 5876 5875 5874 5873 5872
5853 5854 5856 5857 5858 5859 5861 5862 5863 5865 5866 5867 5869 5870 5871 5872 5873 5874 5875 5875 5876 5877 5877 5877 5878 5878 5878 5878 5878 5878 5878 5878 5878 5877 5877 5876 5876 5875 5875 5874 5873 5873 5872
5848 5849 5851 5853 5854 5855 5857 5858 5860 5861 5863 5864 5865 5867 5868 5869 5870 5871 5872 5873 5874 5874 5875 5875 5876 5876 5876 5877 5877 5877 5877 5876 5876 5876 5876 5875 5875 5874 5874 5873 5873 5872 5871
5842 5844 5846 5847 5849 5850 5852 5853 5855 5857 5858 5860 5862 5863 5864 5866 5867 5868 5869 5870 5871 5872 5872 5873 5873 5874 5874 5875 5875 5875 5875 5875 5875 5875 5874 5874 5874 5873 5873 5872 5871 5871 5870
5836 5837 5839 5841 5843 5845 5847 5848 5850 5852 5854 5855 5857 5859 5861 5862 5863 5865 5866 5867 5868 5869 5869 5870 5871 5871 5872 5873 5873 5873 5873 5873 5873 5873 5873 5872 5872 5871 5871 5870 5870 5869 5868
5829 5831 5832 5835 5837 5839 5841 5843 5844 5846 5848 5850 5852 5854 5856 5858 5859 5861 5862 5863 5864 5865 5866 5867 5868 5869 5869 5870 5870 5870 5870 5871 5871 5871 5871 5870 5870 5870 5869 5869 5868 5867 5867
5821 5823 5825 5827 5829 5832 5834 5836 5838 5840 5842 5844 5847 5849 5851 5853 5855 5856 5858 5859 5860 5862 5863 5864 5865 5865 5866 5867 5867 5868 5868 5868 5868 5868 5868 5868 5868 5867 5867 5867 5866 5865 5865
5812 5815 5817 5819 5822 5824 5827 5829 5831 5833 5836 5838 5841 5843 5845 5847 5849 5851 5853 5855 5856 5857 5859 5860 5861 5862 5863 5863 5864 5864 5865 5865 5865 5865 5865 5865 5865 5865 5864 5864 5863 5863 5862
5804 5806 5809 5811 5814 5816 5819 5821 5824 5826 5829 5831 5834 5837 5839 5842 5844 5846 5848 5850 5851 5853 5854 5855 5857 5858 5859 5859 5860 5861 5861 5862 5862 5862 5862 5862 5862 5862 5862 5861 5861 5860 5859
5795 5797 5800 5803 5806 5808 5810 5813 5816 5818 5821 5824 5827 5830 5832 5835 5838 5840 5842 5844 5846 5848 5849 5851 5852 5853 5854 5855 5856 5857 5857 5858 5858 5858 5858 5859 5859 5858 5858 5858 5857 5857 5856
5786 5789 5791 5794 5797 5799 5802 5804 5807 5810 5813 5816 5819 5822 5825 5828 5831 5834 5836 5838 5840 5842 5844 5845 5847 5848 5850 5851 5852 5852 5853 5853 5854 5854 5854 5855 5855 5855 5855 5854 5854 5853 5853
5777 5780 5782 5785 5787 5790 5792 5795 5798 5801 5804 5808 5811 5814 5817 5821 5824 5827 5829 5831 5834 5836 5838 5840 5842 5843 5844 5845 5846 5847 5848 5849 5849 5850 5850 5850 5850 5850 5851 5850 5850 5850 5849
5768 5770 5772 5775 5778 5780 5782 5785 5788 5792 5795 5799 5803 5806 5809 5813 5816 5819 5822 5824 5827 5829 5832 5834 5835 5837 5838 5840 5841 5842 5843 5843 5844 5845 5845 5846 5846 5846 5846 5846 5846 5845 5845
5759 5760 5762 5765 5768 5770 5773 5776 5779 5782 5786 5790 5794 5797 5801 5805 5809 5812 5815 5816 5819 5822 5825 5827 5829 5831 5832 5833 5835 5836 5837 5838 5838 5839 5840 5840 5841 5841 5841 5841 5841 5840 5840
5750 5751 5752 5754 5757 5759 5762 5765 5769 5772 5776 5780 5784 5788 5792 5796 5800 5804 5807 5809 5812 5814 5817 5819 5821 5823 5825 5827 5828 5829 5830 5831 5832 5833 5834 5835 5835 5835 5835 5835 5835 5835 5835
5740 5741 5742 5744 5746 5748 5751 5755 5758 5762 5766 5770 5774 5779 5783 5787 5791 5795 5798 5801 5804 5806 5809 5811 5813 5815 5817 5819 5821 5822 5824 5825 5825 5826 5827 5828 5829 5829 5829 5829 5829 5829 5829
5731 5731 5732 5733 5735 5737 5740 5744 5748 5751 5755 5760 5764 5769 5773 5778 5782 5785 5788 5792 5796 5798 5800 5802 5805 5807 5809 5812 5813 5815 5816 5817 5818 5819 5820 5821 5822 5822 5823 5823 5823 5823 5823
5722 5722 5722 5722 5724 5726 5729 5732 5736 5740 5744 5749 5754 5759 5763 5768 5771 5775 5779 5783 5786 5789 5791 5793 5796 5798 5801 5803 5805 5806 5808 5809 5810 5811 5813 5813 5814 5815 5815 5816 5816 5816 5816
5713 5713 5712 5713 5714 5715 5718 5721 5725 5729 5733 5738 5743 5748 5753 5757 5761 5765 5769 5772 5776 5779 5781 5784 5786 5789 5792 5794 5796 5798 5800 5801 5802 5803 5805 5805 5806 5807 5807 5808 5808 5808 5808
5704 5704 5704 5704 5704 5705 5707 5710 5714 5718 5722 5726 5731 5736 5742 5746 5751 5754 5758 5762 5765 5768 5771 5774 5776 5779 5782 5784 5786 5789 5791 5792 5794 5795 5796 5797 5798 5798 5799 5800 5800 5800 5800
5696 5696 5695 5695 5695 5696 5698 5700 5704 5707 5711 5716 5720 5725 5730 5735 5739 5743 5747 5750 5754 5757 5760 5763 5766 5768 5772 5774 5777 5779 5781 5784 5786 5787 5788 5789 5789 5790 5790 5791 5791 5791 5791
5689 5689 5688 5687 5687 5687 5689 5691 5694 5697 5700 5704 5709 5713 5718 5723 5727 5731 5735 5739 5742 5746 5749 5752 5755 5758 5761 5764 5766 5769 5771 5774 5777 5778 5779 5780 5780 5780 5781 5781 5781 5781 5781
5683 5682 5681 5680 5679 5679 5680 5682 5684 5687 5690 5693 5697 5702 5706 5711 5715 5718 5722 5726 5730 5733 5737 5741 5744 5748 5750 5753 5756 5758 5761 5764 5766 5768 5769 5770 5770 5770 5771 5771 5771 5771 5771
5677 5676 5674 5673 5672 5672 5673 5674 5675 5678 5680 5683 5687 5691 5695 5699 5703 5706 5710 5713 5718 5722 5725 5729 5733 5736 5739 5742 5745 5747 5750 5752 5754 5756 5758 5759 5760 5760 5760 5760 5760 5760 5759
5672 5670 5668 5667 5666 5665 5665 5666 5668 5670 5672 5675 5679 5682 5685 5689 5692 5695 5699 5702 5706 5710 5714 5718 5721 5725 5728 5731 5734 5736 5738 5740 5743 5744 5746 5748 5749 5749 5749 5749 5748 5748 5747